Location: Gombori
(14.9797°N, 2.9419°W)
Time: 23:21:44
(UTC+00:00)

USA 238 - Pass Details

Date: 29 July 2021
Orbit: 978 x 1235 km, 63.4° (Epoch: 18 September)

Event Time Altitude Azimuth Distance (km) Brightness Sun altitude
Rises 19:25:51 0° 343° (NNW) 4,063 7.3 -10.6°
Reaches altitude 10° 19:28:39 10° 349° (NNW) 3,127 6.6 -11.2°
Maximum altitude 19:36:00 53° 64° (ENE) 1,472 4.2 -12.9°
Enters shadow 19:42:14 16° 136° (SE) 2,780 5.3 -14.2°
